Orbital Elements at Epoch 2459200.5 (2020-Dec-17.0) TDB
Reference: JPL 22 (heliocentric ecliptic J2000)
Element | Value | Uncertainty (1-sigma) | Units |
e | .1131076311221734 | 5.9514e-08 | |
a | 2.557899008138871 | 1.7747e-08 | au |
q | 2.268581110678527 | 1.5532e-07 | au |
i | 9.313694716951192 | 5.1027e-06 | deg |
node | 35.23879292869099 | 3.9637e-05 | deg |
peri | 80.33119082951258 | 4.5484e-05 | deg |
M | 59.40440497610637 | 2.5092e-05 | deg |
tp | 2458953.930322856422 (2020-Apr-14.43032286) | 0.00010304 | TDB |
period | 1494.250869230848 4.09 | 1.5551e-05 4.258e-08 | d yr |
n | .2409234000883043 | 2.5073e-09 | deg/d |
Q | 2.847216905599216 | 1.9754e-08 | au |
|
| | Orbit Determination Parameters
Additional Information
|